GPS BIIF-3 (PRN 24)

Last updated on Wed Sep 17 2025 00:03:17 GMT+0000 (Coordinated Universal Time)

1 38833U 12053A 25259.10227652 -.00000035 00000+0 00000+0 0 9991 2 38833 53.5438 154.8286 0171686 62.3310 299.4491 2.00564114 93949
UTC large
Height (km)
Speed (km/s)
/
Latitude / Longitude
Inclination (degrees)
Orbital Period (minutes)
Azimuth
Elevation
Range (km)
Doppler Factor

Next 0 passes for location: London (51.5072 / 0.1276)

Sorry there are no passes over London.